Galveston, TX

4:47 PM CDT on June 22, 2017 (GMT -0500)
Scholes International At Galveston

Weather History for KGLS - January, 2014

Change the Weather History Date:

Wednesday, January 1, 2014

  Actual Average Record
Temperature  
Mean Temperature 56 °F 55 °F  
Max Temperature 61 °F 62 °F 76 °F (1934)
Min Temperature 50 °F 49 °F 23 °F (1928)
Degree Days  
Heating Degree Days 9 10  
Month to date heating degree days 9 10  
Since 1 July heating degree days 555 370  
Cooling Degree Days 0 0  
Month to date cooling degree days 0 0  
Year to date cooling degree days 0 0  
Growing Degree Days 6 (Base 50)    
Moisture  
Dew Point 54 °F    
Average Humidity 93    
Maximum Humidity 100    
Minimum Humidity 86    
Precipitation  
Precipitation 0.01 in 0.11 in 4.01 in (2013)
Month to date precipitation 0.01 0.11  
Year to date precipitation 0.01 0.11  
Snow  
Snow 0.00 in 0.00 in 0.00 in (2016)
Month to date snowfall 0.0 0.0  
Since 1 July snowfall 0.0 0.0  
Snow Depth 0.00 in    
Sea Level Pressure  
Sea Level Pressure 30.14 in    
Wind  
Wind Speed 4 mph (NE)    
Max Wind Speed 8 mph    
Max Gust Speed 10 mph    
Visibility 8 miles    
Events Rain    
T = Trace of Precipitation, MM = Missing Value Source: NWS Daily Summary

Daily Weather History Graph

Daily Weather History Graph

Search for Another Location

Airport or City:

Trip Planner

Search our weather history database for the weather conditions in past years. The results will help you decide how hot, cold, wet, or windy it might be!

Date:

Astronomy

Jan. 01, 2014 Rise Set
Actual Time 7:13 AM CST 5:32 PM CST
Civil Twilight 6:47 AM CST 5:58 PM CST
Nautical Twilight 6:18 AM CST 6:28 PM CST
Astronomical Twilight 5:49 AM CST 6:57 PM CST
Moon 7:09 AM CST (1/1) 6:12 PM CST (1/1)
Length of Visible Light 11h 10m
Length of Day
10h 18m
New Moon, 0% of the Moon is Illuminated
Jan 1
New Moon
Jan 7
First Quarter
Jan 15
Full
Jan 23
Last Quarter
Jan 30
New

Hourly Weather History & Observations

Time (CST) Temp. Dew Point Humidity Pressure Visibility Wind Dir Wind Speed Gust Speed Precip Events Conditions
12:27 AM 51.8 °F 48.2 °F 88% 30.30 in 10.0 mi ESE 5.8 mph - N/A   Overcast
12:52 AM 51.1 °F 48.0 °F 89% 30.29 in 10.0 mi ESE 3.5 mph - N/A   Overcast
1:36 AM 51.8 °F 48.2 °F 88% 30.27 in 10.0 mi East 4.6 mph - N/A   Scattered Clouds
1:52 AM 51.1 °F 48.9 °F 92% 30.27 in 10.0 mi North 5.8 mph - N/A   Partly Cloudy
2:33 AM 50.0 °F 48.2 °F 94% 30.24 in 9.0 mi NNE 4.6 mph - N/A   Overcast
2:41 AM 50.0 °F 48.2 °F 94% 30.25 in 10.0 mi NE 3.5 mph - N/A   Mostly Cloudy
2:52 AM 50.0 °F 48.9 °F 96% 30.24 in 10.0 mi ENE 3.5 mph - N/A   Mostly Cloudy
3:52 AM 51.1 °F 50.0 °F 96% 30.23 in 10.0 mi Calm Calm - N/A   Overcast
4:52 AM 51.1 °F 50.0 °F 96% 30.20 in 8.0 mi North 3.5 mph - N/A   Overcast
5:52 AM 51.1 °F 51.1 °F 100% 30.19 in 9.0 mi NNE 3.5 mph - N/A   Overcast
6:52 AM 51.1 °F 51.1 °F 100% 30.19 in 8.0 mi North 4.6 mph - N/A   Overcast
7:52 AM 51.1 °F 51.1 °F 100% 30.19 in 7.0 mi NNE 5.8 mph - N/A   Overcast
8:16 AM 51.8 °F 51.8 °F 100% 30.20 in 8.0 mi North 3.5 mph - N/A   Overcast
8:52 AM 52.0 °F 52.0 °F 100% 30.22 in 8.0 mi North 4.6 mph - N/A   Overcast
9:39 AM 53.6 °F 51.8 °F 94% 30.20 in 9.0 mi NNE 6.9 mph - N/A   Mostly Cloudy
9:52 AM 54.0 °F 52.0 °F 93% 30.20 in 9.0 mi NNE 4.6 mph - N/A   Scattered Clouds
10:05 AM 55.4 °F 53.6 °F 94% 30.19 in 9.0 mi NNE 4.6 mph - N/A   Mostly Cloudy
10:24 AM 55.4 °F 53.6 °F 94% 30.19 in 9.0 mi North 4.6 mph - N/A   Mostly Cloudy
10:52 AM 55.9 °F 53.1 °F 90% 30.19 in 10.0 mi North 4.6 mph - N/A   Overcast
11:24 AM 57.2 °F 53.6 °F 88% 30.18 in 10.0 mi Calm Calm - N/A   Overcast
11:45 AM 60.8 °F 57.2 °F 88% 30.16 in 10.0 mi East 4.6 mph - N/A   Overcast
11:52 AM 61.0 °F 57.0 °F 87% 30.16 in 10.0 mi East 5.8 mph - N/A   Overcast
12:52 PM 61.0 °F 57.9 °F 90% 30.12 in 10.0 mi ESE 5.8 mph - N/A   Mostly Cloudy
1:52 PM 60.1 °F 57.9 °F 93% 30.08 in 10.0 mi East 5.8 mph - N/A   Overcast
2:14 PM 60.8 °F 57.2 °F 88% 30.08 in 10.0 mi ESE 4.6 mph - N/A   Overcast
2:52 PM 61.0 °F 59.0 °F 93% 30.06 in 10.0 mi East 4.6 mph - N/A   Overcast
3:52 PM 61.0 °F 59.0 °F 93% 30.06 in 10.0 mi East 4.6 mph - N/A   Overcast
4:52 PM 59.0 °F 57.9 °F 96% 30.06 in 4.0 mi SE 3.5 mph - 0.00 in Rain Light Rain
5:52 PM 57.9 °F 57.9 °F 100% 30.05 in 8.0 mi Calm Calm - 0.01 in   Overcast
6:12 PM 57.2 °F 57.2 °F 100% 30.04 in 8.0 mi East 3.5 mph - 0.00 in Rain Light Rain
6:47 PM 57.2 °F 57.2 °F 100% 30.05 in 6.0 mi Calm Calm - 0.00 in   Overcast
6:52 PM 57.9 °F 57.9 °F 100% 30.05 in 6.0 mi Calm Calm - 0.00 in   Overcast
7:52 PM 57.9 °F 57.0 °F 97% 30.05 in 7.0 mi ENE 3.5 mph - N/A   Overcast
8:14 PM 57.2 °F 57.2 °F 100% 30.04 in 5.0 mi East 3.5 mph - N/A   Mostly Cloudy
8:52 PM 55.9 °F 55.9 °F 100% 30.06 in 4.0 mi North 4.6 mph - N/A   Mostly Cloudy
9:52 PM 55.9 °F 55.9 °F 100% 30.06 in 5.0 mi NNE 3.5 mph - N/A   Overcast
10:19 PM 55.4 °F 55.4 °F 100% 30.07 in 4.0 mi East 4.6 mph - N/A   Overcast
10:52 PM 57.0 °F 57.0 °F 100% 30.06 in 6.0 mi East 3.5 mph - N/A   Overcast
11:14 PM 57.2 °F 57.2 °F 100% 30.06 in 5.0 mi ESE 6.9 mph - N/A   Overcast
11:47 PM 57.2 °F 57.2 °F 100% 30.07 in 5.0 mi NNW 4.6 mph - N/A   Overcast
11:52 PM 57.0 °F 57.0 °F 100% 30.07 in 5.0 mi NNW 5.8 mph - N/A   Overcast